QPF
0.01 0.02 0.02 0.02 0.01 0.01 0.03 0.04 0.05 0.04 0.04 0.02 0.02 0.02 0.02 0.02 0.02 0.03 0.02 0.01 0.02 0.01 0.01 0.04 0.08 0.13 0.15 0.15 0.13 0.13 0.12 0.16 0.26 0.34 0.26 0.20 0.19 0.16
0.01 0.01 0.01 0.01 0.01 0.01 0.02 0.03 0.03 0.04 0.03 0.02 0.02 0.01 0.01 0.01 0.02 0.02 0.01 0.01 0.01 0.01 0.01 0.01 0.01 0.03 0.07 0.09 0.09 0.10 0.10 0.12 0.18 0.31 0.29 0.19 0.15 0.13
0.01 0.01 0.01 0.01 0.02 0.02 0.03 0.03 0.03 0.03 0.02 0.02 0.01 0.02 0.02 0.02 0.02 0.02 0.02 0.02 0.02 0.01 0.01 0.01 0.01 0.01 0.01 0.03 0.03 0.04 0.04 0.07 0.10 0.18 0.27 0.20 0.14 0.09
0.01 0.02 0.02 0.01 0.01 0.02 0.02 0.02 0.02 0.02 0.02 0.02 0.02 0.02 0.02 0.01 0.02 0.02 0.02 0.02 0.02 0.02 0.01 0.01 0.01 0.01 0.00 0.01 0.02 0.02 0.03 0.05 0.09 0.12 0.20 0.19 0.12 0.08
0.01 0.01 0.01 0.01 0.01 0.02 0.01 0.01 0.01 0.02 0.02 0.01 0.02 0.02 0.02 0.01 0.01 0.01 0.02 0.03 0.03 0.02 0.02 0.01 0.01 0.01 0.00 0.01 0.01 0.01 0.02 0.03 0.06 0.08 0.10 0.15 0.11 0.09
0.01 0.01 0.01 0.01 0.01 0.01 0.01 0.02 0.02 0.02 0.02 0.02 0.01 0.02 0.03 0.02 0.02 0.02 0.02 0.03 0.04 0.04 0.03 0.03 0.01 0.01 0.00 0.00 0.01 0.01 0.01 0.02 0.03 0.05 0.06 0.08 0.09 0.08
0.00 0.00 0.01 0.01 0.01 0.01 0.01 0.01 0.01 0.02 0.02 0.02 0.02 0.02 0.02 0.03 0.02 0.01 0.02 0.03 0.03 0.04 0.04 0.04 0.03 0.02 0.01 0.01 0.01 0.02 0.02 0.03 0.03 0.04 0.05 0.06 0.07 0.07
0.00 0.00 0.00 0.00 0.01 0.00 0.00 0.00 0.00 0.01 0.01 0.01 0.01 0.02 0.01 0.02 0.02 0.01 0.02 0.03 0.03 0.03 0.04 0.04 0.03 0.03 0.03 0.02 0.01 0.01 0.02 0.03 0.03 0.03 0.04 0.05 0.07 0.07
0.00 0.00 0.00 0.00 0.00 0.01 0.01 0.00 0.00 0.00 0.00 0.01 0.01 0.01 0.01 0.01 0.01 0.01 0.02 0.03 0.03 0.03 0.03 0.03 0.03 0.04 0.03 0.02 0.02 0.01 0.02 0.03 0.03 0.03 0.02 0.04 0.06 0.07
0.00 0.00 0.00 0.00 0.00 0.00 0.00 0.00 0.00 0.00 0.01 0.01 0.00 0.01 0.01 0.01 0.01 0.01 0.03 0.04 0.03 0.03 0.03 0.03 0.02 0.02 0.01 0.01 0.01 0.01 0.02 0.03 0.04 0.04 0.03 0.03 0.04 0.07
0.00 0.00 0.00 0.00 0.00 0.00 0.00 0.00 0.00 0.00 0.00 0.00 0.00 0.00 0.01 0.01 0.01 0.01 0.02 0.04 0.03 0.03 0.02 0.02 0.01 0.01 0.01 0.01 0.00 0.01 0.01 0.02 0.03 0.03 0.03 0.04 0.04 0.05
0.00 0.00 0.00 0.00 0.00 0.00 0.00 0.00 0.00 0.00 0.00 0.01 0.01 0.01 0.00 0.00 0.00 0.01 0.01 0.02 0.03 0.03 0.02 0.01 0.01 0.02 0.02 0.01 0.01 0.01 0.01 0.03 0.03 0.03 0.02 0.03 0.04 0.04
0.00 0.00 0.00 0.00 0.00 0.00 0.00 0.00 0.00 0.00 0.01 0.01 0.02 0.02 0.01 0.01 0.01 0.01 0.01 0.02 0.02 0.01 0.01 0.01 0.01 0.02 0.02 0.01 0.02 0.02 0.02 0.02 0.03 0.02 0.02 0.03 0.03 0.04
0.00 0.00 0.00 0.00 0.00 0.00 0.00 0.00 0.00 0.00 0.00 0.00 0.01 0.01 0.01 0.01 0.01 0.01 0.00 0.00 0.01 0.01 0.01 0.01 0.01 0.01 0.01 0.01 0.01 0.01 0.01 0.02 0.02 0.03 0.03 0.04 0.04 0.04
0.00 0.00 0.00 0.00 0.01 0.01 0.00 0.00 0.00 0.00 0.00 0.01 0.01 0.01 0.01 0.01 0.01 0.01 0.01 0.00 0.01 0.01 0.01 0.01 0.01 0.01 0.02 0.01 0.01 0.03 0.02 0.02 0.02 0.03 0.05 0.06 0.06 0.06
0.00 0.00 0.00 0.01 0.01 0.01 0.01 0.01 0.00 0.00 0.00 0.01 0.01 0.01 0.01 0.01 0.01 0.01 0.01 0.01 0.00 0.01 0.01 0.01 0.01 0.02 0.02 0.01 0.01 0.02 0.03 0.03 0.03 0.04 0.05 0.06 0.07 0.09
0.00 0.00 0.01 0.01 0.02 0.01 0.01 0.01 0.01 0.01 0.01 0.01 0.01 0.01 0.01 0.01 0.01 0.01 0.01 0.01 0.01 0.01 0.01 0.01 0.01 0.02 0.02 0.02 0.01 0.01 0.03 0.05 0.06 0.06 0.06 0.06 0.06 0.08
0.00 0.01 0.01 0.01 0.02 0.02 0.01 0.01 0.01 0.01 0.01 0.01 0.01 0.01 0.01 0.01 0.01 0.01 0.01 0.01 0.01 0.01 0.01 0.01 0.01 0.02 0.02 0.02 0.02 0.02 0.02 0.03 0.05 0.06 0.06 0.06 0.05 0.06
0.01 0.01 0.01 0.01 0.02 0.02 0.01 0.01 0.02 0.02 0.01 0.01 0.01 0.01 0.01 0.01 0.01 0.01 0.01 0.01 0.01 0.01 0.01 0.01 0.01 0.02 0.03 0.02 0.02 0.01 0.02 0.02 0.03 0.05 0.06 0.06 0.06 0.06
0.01 0.01 0.01 0.01 0.02 0.03 0.03 0.02 0.02 0.02 0.02 0.02 0.01 0.01 0.01 0.01 0.01 0.01 0.01 0.02 0.01 0.01 0.01 0.01 0.01 0.02 0.03 0.03 0.02 0.02 0.03 0.03 0.04 0.04 0.05 0.06 0.07 0.08
0.00 0.01 0.01 0.01 0.01 0.01 0.02 0.03 0.02 0.02 0.02 0.02 0.02 0.02 0.02 0.02 0.02 0.02 0.01 0.01 0.02 0.02 0.02 0.01 0.01 0.01 0.02 0.03 0.03 0.02 0.03 0.03 0.04 0.05 0.05 0.07 0.07 0.07
0.00 0.00 0.01 0.01 0.00 0.01 0.01 0.01 0.01 0.02 0.02 0.03 0.02 0.02 0.02 0.02 0.02 0.02 0.02 0.02 0.02 0.02 0.02 0.02 0.02 0.02 0.02 0.02 0.02 0.02 0.02 0.02 0.03 0.04 0.05 0.07 0.09 0.09
0.00 0.00 0.00 0.00 0.01 0.01 0.01 0.01 0.01 0.02 0.02 0.02 0.03 0.03 0.03 0.02 0.02 0.03 0.02 0.02 0.03 0.03 0.03 0.02 0.02 0.02 0.02 0.02 0.02 0.02 0.02 0.03 0.04 0.04 0.04 0.05 0.07 0.08
MSLP
1019.39 1019.52 1019.68 1019.85 1020.03 1020.21 1020.37 1020.51 1020.62 1020.72 1020.81 1020.89 1020.97 1021.02 1021.05 1021.05 1021.01 1020.93 1020.82 1020.69 1020.55 1020.45 1020.38 1020.37 1020.41 1020.50 1020.63 1020.77 1020.91 1021.03 1021.11 1021.15 1021.17 1021.16 1021.15 1021.13 1021.13 1021.16
1019.73 1019.86 1020.01 1020.15 1020.30 1020.44 1020.58 1020.71 1020.83 1020.97 1021.10 1021.25 1021.38 1021.50 1021.59 1021.63 1021.61 1021.54 1021.41 1021.25 1021.07 1020.91 1020.77 1020.69 1020.67 1020.71 1020.79 1020.89 1021.00 1021.10 1021.17 1021.21 1021.22 1021.19 1021.15 1021.10 1021.05 1021.01
1020.06 1020.21 1020.35 1020.48 1020.60 1020.72 1020.85 1020.97 1021.12 1021.28 1021.46 1021.65 1021.84 1022.02 1022.15 1022.22 1022.23 1022.16 1022.02 1021.83 1021.60 1021.38 1021.19 1021.05 1020.97 1020.94 1020.97 1021.04 1021.13 1021.21 1021.27 1021.31 1021.31 1021.27 1021.21 1021.13 1021.05 1020.96
1020.41 1020.58 1020.73 1020.86 1020.98 1021.09 1021.21 1021.35 1021.50 1021.69 1021.89 1022.12 1022.35 1022.55 1022.71 1022.80 1022.81 1022.73 1022.58 1022.37 1022.11 1021.85 1021.61 1021.42 1021.29 1021.22 1021.21 1021.25 1021.31 1021.37 1021.42 1021.45 1021.44 1021.40 1021.33 1021.23 1021.12 1020.99
1020.79 1020.98 1021.15 1021.29 1021.42 1021.54 1021.67 1021.80 1021.97 1022.16 1022.38 1022.61 1022.85 1023.05 1023.21 1023.29 1023.30 1023.21 1023.05 1022.82 1022.55 1022.27 1022.02 1021.80 1021.64 1021.53 1021.49 1021.49 1021.52 1021.56 1021.59 1021.61 1021.59 1021.55 1021.47 1021.36 1021.23 1021.09
1021.17 1021.39 1021.58 1021.74 1021.88 1022.02 1022.15 1022.30 1022.47 1022.65 1022.86 1023.07 1023.29 1023.46 1023.59 1023.66 1023.65 1023.55 1023.38 1023.16 1022.89 1022.63 1022.37 1022.15 1021.97 1021.85 1021.78 1021.75 1021.75 1021.75 1021.76 1021.75 1021.71 1021.65 1021.57 1021.45 1021.31 1021.15
1021.52 1021.75 1021.96 1022.14 1022.30 1022.45 1022.60 1022.75 1022.91 1023.08 1023.26 1023.44 1023.60 1023.73 1023.83 1023.85 1023.82 1023.72 1023.56 1023.35 1023.12 1022.88 1022.65 1022.45 1022.28 1022.15 1022.05 1021.99 1021.93 1021.89 1021.85 1021.79 1021.73 1021.65 1021.55 1021.43 1021.28 1021.11
1021.76 1022.00 1022.22 1022.42 1022.60 1022.76 1022.92 1023.07 1023.22 1023.37 1023.51 1023.64 1023.75 1023.84 1023.89 1023.89 1023.83 1023.74 1023.60 1023.43 1023.24 1023.04 1022.85 1022.68 1022.53 1022.39 1022.26 1022.15 1022.04 1021.93 1021.83 1021.72 1021.60 1021.49 1021.36 1021.22 1021.07 1020.89
1021.84 1022.07 1022.30 1022.52 1022.72 1022.90 1023.07 1023.22 1023.35 1023.48 1023.59 1023.67 1023.74 1023.78 1023.79 1023.77 1023.71 1023.63 1023.53 1023.40 1023.27 1023.13 1022.99 1022.85 1022.70 1022.55 1022.39 1022.22 1022.05 1021.86 1021.68 1021.50 1021.33 1021.16 1021.00 1020.84 1020.67 1020.49
1021.72 1021.96 1022.20 1022.43 1022.64 1022.83 1023.01 1023.17 1023.29 1023.40 1023.49 1023.54 1023.58 1023.59 1023.58 1023.55 1023.51 1023.45 1023.39 1023.31 1023.23 1023.15 1023.05 1022.93 1022.79 1022.62 1022.43 1022.20 1021.95 1021.69 1021.42 1021.17 1020.93 1020.71 1020.51 1020.33 1020.14 1019.94
1021.42 1021.67 1021.92 1022.16 1022.39 1022.60 1022.79 1022.95 1023.08 1023.17 1023.25 1023.29 1023.31 1023.32 1023.31 1023.29 1023.27 1023.25 1023.22 1023.19 1023.16 1023.11 1023.04 1022.94 1022.79 1022.60 1022.36 1022.08 1021.77 1021.43 1021.10 1020.78 1020.48 1020.22 1019.98 1019.76 1019.55 1019.33
1021.00 1021.27 1021.53 1021.79 1022.04 1022.26 1022.46 1022.62 1022.75 1022.85 1022.92 1022.97 1022.99 1023.00 1023.01 1023.01 1023.01 1023.01 1023.02 1023.03 1023.03 1023.00 1022.95 1022.85 1022.69 1022.48 1022.21 1021.89 1021.53 1021.15 1020.77 1020.40 1020.06 1019.76 1019.49 1019.24 1019.00 1018.75
1020.52 1020.81 1021.10 1021.38 1021.63 1021.86 1022.06 1022.23 1022.36 1022.46 1022.54 1022.59 1022.63 1022.65 1022.67 1022.69 1022.72 1022.74 1022.77 1022.79 1022.81 1022.79 1022.73 1022.63 1022.46 1022.24 1021.95 1021.61 1021.23 1020.84 1020.44 1020.06 1019.71 1019.39 1019.09 1018.82 1018.55 1018.27
1020.04 1020.36 1020.67 1020.95 1021.21 1021.43 1021.62 1021.78 1021.91 1022.01 1022.10 1022.16 1022.21 1022.25 1022.29 1022.32 1022.35 1022.38 1022.41 1022.43 1022.44 1022.41 1022.35 1022.24 1022.07 1021.85 1021.57 1021.24 1020.88 1020.50 1020.13 1019.76 1019.41 1019.10 1018.79 1018.50 1018.21 1017.89
1019.57 1019.91 1020.23 1020.50 1020.75 1020.95 1021.13 1021.27 1021.39 1021.49 1021.57 1021.64 1021.69 1021.74 1021.78 1021.82 1021.85 1021.87 1021.89 1021.90 1021.88 1021.84 1021.77 1021.65 1021.50 1021.29 1021.04 1020.75 1020.44 1020.11 1019.78 1019.45 1019.14 1018.84 1018.54 1018.23 1017.91 1017.55
1019.07 1019.42 1019.72 1019.99 1020.20 1020.38 1020.52 1020.64 1020.74 1020.83 1020.90 1020.97 1021.03 1021.08 1021.12 1021.15 1021.17 1021.18 1021.17 1021.15 1021.12 1021.07 1020.99 1020.87 1020.74 1020.56 1020.36 1020.13 1019.88 1019.61 1019.34 1019.07 1018.79 1018.51 1018.21 1017.90 1017.54 1017.15
1018.47 1018.80 1019.08 1019.31 1019.49 1019.63 1019.73 1019.82 1019.90 1019.97 1020.04 1020.10 1020.17 1020.22 1020.26 1020.29 1020.29 1020.29 1020.26 1020.23 1020.17 1020.10 1020.02 1019.92 1019.81 1019.67 1019.52 1019.35 1019.17 1018.97 1018.75 1018.52 1018.28 1018.01 1017.72 1017.38 1017.00 1016.58
1017.65 1017.95 1018.20 1018.38 1018.52 1018.62 1018.70 1018.76 1018.83 1018.89 1018.96 1019.03 1019.10 1019.16 1019.21 1019.24 1019.25 1019.23 1019.20 1019.16 1019.10 1019.03 1018.95 1018.87 1018.78 1018.67 1018.57 1018.44 1018.30 1018.14 1017.97 1017.76 1017.53 1017.27 1016.96 1016.61 1016.20 1015.74
1016.56 1016.82 1017.03 1017.17 1017.27 1017.35 1017.41 1017.46 1017.53 1017.60 1017.68 1017.78 1017.87 1017.96 1018.03 1018.07 1018.10 1018.10 1018.08 1018.05 1017.99 1017.93 1017.87 1017.79 1017.72 1017.63 1017.54 1017.44 1017.31 1017.17 1016.99 1016.79 1016.55 1016.26 1015.93 1015.55 1015.11 1014.63
1015.18 1015.40 1015.57 1015.69 1015.77 1015.84 1015.90 1015.97 1016.05 1016.15 1016.27 1016.41 1016.54 1016.67 1016.78 1016.87 1016.94 1016.97 1016.99 1016.97 1016.94 1016.90 1016.84 1016.78 1016.71 1016.62 1016.52 1016.40 1016.26 1016.09 1015.89 1015.65 1015.37 1015.04 1014.67 1014.26 1013.80 1013.29
1013.57 1013.76 1013.90 1014.01 1014.10 1014.18 1014.27 1014.37 1014.49 1014.64 1014.82 1015.01 1015.20 1015.39 1015.56 1015.71 1015.83 1015.91 1015.97 1016.00 1016.00 1015.98 1015.94 1015.87 1015.79 1015.68 1015.55 1015.39 1015.19 1014.97 1014.71 1014.41 1014.08 1013.71 1013.30 1012.85 1012.36 1011.85
1011.85 1012.01 1012.15 1012.27 1012.38 1012.49 1012.63 1012.78 1012.96 1013.17 1013.41 1013.66 1013.91 1014.17 1014.41 1014.62 1014.80 1014.95 1015.07 1015.15 1015.19 1015.19 1015.16 1015.09 1014.98 1014.84 1014.65 1014.43 1014.17 1013.87 1013.54 1013.18 1012.79 1012.37 1011.92 1011.45 1010.94 1010.41
1010.16 1010.32 1010.47 1010.61 1010.77 1010.93 1011.11 1011.32 1011.55 1011.82 1012.11 1012.42 1012.73 1013.04 1013.34 1013.62 1013.87 1014.08 1014.25 1014.38 1014.46 1014.48 1014.46 1014.38 1014.24 1014.05 1013.81 1013.53 1013.19 1012.83 1012.44 1012.02 1011.59 1011.13 1010.65 1010.15 1009.63 1009.08
Thickness
5707 5707 5706 5706 5706 5705 5704 5701 5694 5688 5690 5697 5701 5705 5707 5708 5708 5709 5710 5710 5711 5712 5714 5716 5718 5720 5722 5724 5726 5727 5728 5729 5730 5731 5732 5733 5733 5733
5705 5704 5703 5703 5704 5704 5703 5701 5699 5694 5689 5694 5698 5702 5703 5704 5705 5705 5706 5707 5708 5709 5710 5712 5714 5716 5718 5720 5721 5722 5723 5724 5725 5726 5727 5728 5728 5728
5703 5702 5701 5701 5700 5700 5699 5698 5697 5694 5689 5691 5696 5699 5699 5699 5701 5702 5703 5704 5704 5705 5706 5708 5709 5711 5713 5714 5715 5717 5718 5718 5719 5720 5721 5721 5721 5722
5699 5698 5697 5697 5696 5696 5695 5694 5693 5692 5689 5686 5689 5692 5694 5695 5696 5697 5699 5700 5700 5701 5702 5703 5705 5706 5707 5708 5710 5711 5712 5712 5713 5714 5714 5715 5715 5716
5696 5694 5692 5691 5690 5690 5690 5689 5688 5689 5687 5684 5684 5687 5688 5690 5690 5691 5693 5694 5696 5696 5697 5698 5699 5701 5702 5703 5704 5705 5706 5707 5707 5707 5708 5708 5708 5709
5693 5690 5688 5686 5684 5684 5684 5683 5683 5682 5682 5680 5679 5681 5682 5684 5684 5682 5683 5686 5689 5691 5691 5693 5694 5695 5696 5697 5698 5699 5699 5700 5700 5701 5701 5702 5702 5702
5688 5686 5684 5682 5681 5680 5679 5677 5677 5676 5675 5674 5673 5674 5674 5674 5674 5676 5675 5678 5682 5685 5685 5686 5688 5689 5690 5691 5692 5692 5693 5693 5694 5694 5695 5695 5696 5696
5682 5681 5680 5677 5676 5675 5674 5673 5672 5670 5667 5666 5666 5665 5666 5667 5668 5669 5668 5668 5669 5677 5677 5679 5681 5682 5683 5684 5685 5686 5686 5686 5686 5687 5687 5688 5689 5689
5676 5675 5674 5672 5670 5668 5668 5668 5667 5666 5665 5662 5659 5659 5659 5661 5661 5661 5661 5661 5662 5668 5669 5669 5672 5673 5676 5677 5678 5678 5678 5679 5679 5679 5679 5680 5681 5681
5671 5669 5667 5664 5663 5662 5661 5660 5660 5660 5659 5658 5656 5655 5655 5656 5655 5654 5654 5656 5658 5660 5661 5659 5662 5664 5668 5669 5669 5670 5670 5670 5671 5671 5671 5671 5672 5673
5664 5662 5660 5657 5656 5655 5653 5652 5651 5652 5652 5651 5650 5650 5649 5649 5648 5646 5645 5644 5645 5648 5650 5649 5651 5653 5656 5658 5659 5659 5659 5660 5660 5661 5662 5662 5662 5663
5657 5655 5653 5650 5648 5646 5644 5643 5641 5642 5643 5643 5643 5642 5642 5641 5640 5638 5636 5633 5633 5635 5639 5637 5638 5639 5642 5647 5647 5647 5647 5648 5649 5650 5651 5652 5652 5651
5648 5646 5645 5643 5641 5639 5637 5635 5634 5634 5634 5634 5633 5633 5632 5631 5630 5628 5627 5625 5623 5623 5627 5626 5625 5626 5626 5631 5635 5635 5635 5636 5637 5638 5639 5640 5640 5639
5640 5639 5637 5635 5633 5632 5630 5629 5628 5627 5625 5624 5622 5621 5620 5620 5619 5619 5617 5616 5615 5615 5616 5616 5614 5614 5613 5616 5619 5623 5623 5623 5624 5625 5626 5627 5628 5628
5632 5631 5629 5627 5626 5624 5623 5622 5620 5617 5615 5613 5611 5611 5611 5610 5609 5608 5607 5607 5606 5606 5605 5605 5603 5603 5601 5600 5603 5606 5608 5610 5610 5610 5611 5612 5614 5614
5623 5622 5621 5619 5617 5616 5614 5613 5611 5609 5606 5604 5602 5602 5601 5599 5597 5596 5595 5594 5594 5594 5595 5593 5592 5590 5589 5589 5588 5589 5591 5591 5594 5594 5595 5598 5599 5600
5615 5613 5611 5610 5608 5606 5605 5603 5602 5600 5597 5595 5592 5590 5589 5587 5585 5584 5583 5582 5580 5580 5581 5581 5580 5578 5577 5575 5574 5574 5574 5575 5577 5577 5579 5582 5585 5586
5606 5603 5601 5600 5598 5596 5595 5593 5591 5589 5587 5584 5581 5579 5576 5575 5574 5572 5570 5568 5567 5566 5566 5565 5564 5563 5563 5564 5559 5557 5558 5558 5560 5561 5561 5563 5568 5572
5596 5593 5591 5590 5588 5586 5584 5581 5579 5577 5575 5572 5569 5566 5564 5563 5561 5559 5557 5555 5553 5552 5551 5549 5546 5543 5543 5547 5550 5543 5540 5541 5542 5544 5545 5546 5549 5555
5586 5584 5582 5580 5578 5576 5573 5570 5568 5566 5563 5560 5557 5554 5551 5549 5548 5546 5544 5542 5540 5539 5537 5535 5531 5528 5526 5528 5532 5534 5528 5524 5524 5526 5528 5530 5533 5537
5578 5575 5573 5570 5568 5565 5563 5560 5557 5554 5551 5548 5545 5542 5539 5536 5534 5532 5530 5529 5527 5524 5523 5522 5520 5517 5515 5514 5515 5518 5517 5512 5509 5508 5510 5511 5515 5520
5568 5566 5563 5560 5557 5555 5552 5548 5545 5542 5539 5535 5532 5529 5526 5524 5521 5519 5517 5515 5513 5511 5510 5510 5508 5505 5501 5499 5499 5501 5503 5502 5500 5497 5496 5495 5495 5502
5559 5556 5553 5550 5547 5543 5540 5536 5533 5529 5526 5523 5520 5517 5514 5512 5509 5507 5505 5502 5500 5499 5497 5496 5495 5492 5490 5487 5485 5486 5487 5487 5486 5487 5488 5487 5486 5489